Dewpoint
17 18 18 18 17 16 16 18 17 15 14 13 12 14 15 15 14 15 16 13 12 11 12 12 11 10 10 10 11 10 10 8 8 8 8 9 8 7 9 11 10 13 13 13 13 11 2 13 12
14 15 17 17 17 17 17 17 15 14 12 13 12 13 15 17 17 17 15 13 12 12 12 14 14 11 11 10 10 9 9 8 7 9 10 10 11 8 10 11 12 13 13 13 13 12 1 13 9
13 14 16 17 17 17 16 15 14 13 13 14 14 14 15 18 17 15 14 14 12 12 12 12 15 12 11 11 10 10 10 8 7 7 9 10 11 9 10 12 11 12 13 13 11 7 3 11 11
18 18 17 17 18 17 16 14 14 15 13 14 15 15 16 16 13 14 14 13 12 12 13 12 14 11 11 11 10 11 11 9 7 8 9 11 10 8 10 11 12 12 13 12 10 3 8 11 13
16 16 17 18 17 16 14 13 14 16 15 14 14 16 17 15 14 13 12 12 12 13 13 12 14 11 11 11 11 12 12 10 7 9 9 9 10 9 10 12 12 12 14 10 2 1 13 13 13
16 15 17 18 15 14 13 13 14 15 15 15 15 16 17 15 15 15 13 12 12 12 12 12 11 12 12 12 14 14 12 11 8 8 7 9 9 9 10 11 12 12 11 10 3 12 13 13 13
17 14 16 17 16 16 12 14 15 15 15 15 15 16 17 16 15 14 13 12 12 11 10 11 11 12 13 14 16 14 12 10 8 8 6 8 10 10 10 11 13 10 12 12 9 13 13 14 14
15 14 16 16 17 16 12 11 13 14 15 15 15 17 18 17 16 15 13 13 12 12 11 12 12 13 13 15 16 13 11 9 9 8 6 6 7 10 12 11 13 11 11 11 11 9 12 13 13
13 14 15 16 16 14 12 11 12 14 15 14 15 14 15 16 16 15 14 13 13 13 13 12 12 12 14 15 14 11 9 13 9 9 6 9 6 7 9 11 12 12 9 10 11 10 4 9 13
12 15 13 12 11 13 12 10 11 13 14 15 15 15 16 17 16 14 14 14 13 13 13 12 11 11 11 12 11 9 7 10 10 10 8 12 9 6 7 10 11 9 10 11 10 11 9 7 9
11 12 11 11 11 11 11 12 11 13 15 15 16 16 16 17 16 13 12 10 11 10 11 11 11 10 9 8 8 7 5 7 10 10 13 14 14 13 10 10 12 11 7 10 11 11 11 11 11
12 11 11 13 12 12 12 11 10 11 12 15 15 16 16 16 16 15 13 13 14 13 13 12 11 9 6 6 5 5 3 4 11 10 13 14 15 14 14 14 12 9 9 10 8 10 11 11 11
11 11 10 11 10 11 11 12 11 13 14 15 15 16 16 16 16 15 15 15 15 15 14 13 11 9 4 5 4 5 2 3 5 8 14 14 14 14 14 14 12 10 10 13 11 10 10 10 11
-1 5 7 10 11 12 12 13 12 14 14 15 15 17 17 16 16 16 16 16 16 15 13 11 10 8 3 6 9 7 6 7 11 10 14 13 13 14 13 10 9 13 13 14 14 13 13 13 14
-2 1 4 11 12 12 12 13 12 11 13 14 14 15 16 16 16 15 15 15 15 15 14 13 13 10 5 6 9 9 11 10 13 14 14 13 13 13 14 13 13 14 14 15 15 15 15 15 14
2 2 4 10 12 12 10 12 11 10 13 14 14 14 14 15 15 15 15 15 15 15 14 14 14 13 8 8 12 12 13 13 13 14 14 14 13 14 14 14 13 13 14 14 14 15 15 15 15
2 4 4 5 11 12 11 9 9 10 13 14 14 14 14 14 14 15 15 15 15 15 15 15 15 14 10 11 13 12 14 14 14 14 14 14 14 14 14 14 14 14 13 14 14 15 15 15 16
3 4 3 4 6 8 11 11 11 12 12 14 14 14 14 14 14 14 14 15 14 15 15 15 13 14 13 13 13 13 13 13 14 15 15 15 15 14 14 14 14 15 14 14 14 15 15 14 15
2 3 3 2 0 1 5 8 11 11 12 13 14 14 14 14 13 13 13 14 14 15 15 14 15 15 14 13 13 14 14 14 15 15 15 15 14 14 14 14 14 14 14 14 14 15 14 15 15
0 0 -0 -1 -1 6 7 7 11 11 11 12 13 13 13 14 14 13 13 14 14 14 14 14 14 15 14 13 13 14 13 14 14 15 14 15 15 14 15 14 14 14 13 13 14 14 14 14 15
-5 -2 -2 -2 -5 -1 4 7 10 12 11 12 13 12 10 10 13 13 13 13 13 14 14 14 14 14 14 13 14 14 14 15 15 15 14 14 15 14 15 15 15 14 14 13 14 14 14 14 14
-6 -8 -5 -6 -9 -6 2 8 4 9 12 12 12 13 11 9 9 13 13 13 13 13 14 15 15 14 14 14 14 14 14 14 14 13 14 14 15 14 14 15 15 15 14 13 13 13 13 13 14
-9 -11 -11 -11 -8 -0 0 4 4 7 9 11 11 11 11 11 9 11 14 13 13 13 13 14 14 15 14 14 14 14 15 14 14 14 13 13 13 14 14 15 15 14 14 14 12 13 13 13 14
-12 -12 -12 -5 -2 -4 -2 3 3 6 7 8 10 10 10 10 11 11 13 13 13 13 13 13 14 14 14 14 14 15 15 15 15 15 14 14 14 14 14 15 14 15 15 15 13 12 13 13 13
-13 -11 -7 -7 -7 -6 -3 2 1 1 5 6 8 9 9 11 11 12 12 13 13 13 13 14 14 14 14 14 15 15 15 15 15 15 15 15 15 15 15 15 15 15 15 15 15 12 13 13 14
-11 -11 -8 -7 -6 -7 -5 -3 -3 3 5 4 4 6 8 9 11 11 10 12 13 13 14 14 14 14 14 15 15 15 16 16 16 16 15 16 15 15 15 15 15 15 16 16 16 14 14 14 14
-10 -10 -12 -9 -8 -8 -7 -3 4 5 4 5 6 8 12 7 9 10 11 12 13 13 13 14 14 14 15 15 15 15 16 16 17 16 16 16 16 16 16 15 16 16 15 16 16 16 14 14 14
-12 -12 -10 -10 -8 -7 -6 -4 3 -1 5 4 4 5 8 10 11 12 13 12 11 12 12 13 14 14 14 15 15 16 16 16 17 17 17 17 17 17 17 16 16 16 15 15 15 16 15 14 14
-10 -11 -12 -11 -9 -7 -7 -5 -4 2 1 2 3 3 3 10 9 11 10 11 11 13 12 12 13 14 14 15 15 16 16 16 17 17 18 18 18 18 17 16 15 16 16 16 16 15 15 15 15
-11 -10 -12 -9 -9 -7 -7 -6 -9 -4 -1 2 3 4 3 4 8 8 8 9 10 12 11 11 12 13 14 14 15 16 16 17 18 18 18 18 18 18 17 17 17 17 17 17 16 15 14 14 14
Wind_Speed
9 12 7 3 3 3 3 4 1 4 2 3 25 4 6 4 3 3 19 35 32 33 31 28 27 24 23 22 21 19 18 17 15 14 12 11 13 13 14 14 16 15 17 18 20 17 17 19 16
10 9 8 3 3 3 4 3 1 3 6 19 14 14 2 2 3 15 36 33 33 33 31 27 25 25 23 23 22 20 18 16 15 12 11 11 14 14 15 15 14 17 19 20 19 15 17 18 18
7 5 2 3 3 2 2 5 7 7 15 4 4 4 4 6 12 36 32 30 34 32 30 27 24 24 23 22 20 19 17 16 14 11 10 12 15 16 15 14 16 18 19 20 16 14 18 17 19
3 2 2 4 8 3 4 5 6 10 4 8 10 6 6 2 32 28 30 35 33 31 29 27 24 24 22 21 20 18 15 15 13 12 12 14 15 16 14 15 16 19 18 16 15 17 20 20 20
5 2 4 4 5 3 5 8 7 7 8 8 6 4 9 26 23 26 30 36 31 30 28 28 24 24 21 21 19 17 15 14 14 13 13 14 15 14 15 15 16 17 16 16 16 21 21 18 16
5 4 5 4 6 6 11 11 11 6 8 9 10 11 6 17 25 29 33 33 29 30 29 28 25 24 22 20 18 15 15 14 14 13 13 12 13 13 14 14 14 15 17 17 18 21 20 18 17
3 2 2 2 2 5 4 20 7 6 10 6 21 4 8 22 25 27 35 32 30 28 28 28 26 23 21 19 17 16 15 14 14 13 12 12 12 12 12 13 14 15 16 16 17 19 18 16 16
3 2 0 4 3 6 5 3 12 10 10 16 13 7 9 31 29 30 34 32 29 28 26 26 25 24 22 20 19 17 15 14 14 14 12 11 11 12 12 12 12 13 15 16 16 17 17 14 13
5 2 1 7 5 4 9 2 3 7 16 8 17 8 23 37 32 31 35 34 32 30 28 26 25 24 23 21 20 18 16 16 14 14 13 11 12 12 12 12 12 11 13 15 16 15 16 16 12
6 4 6 5 2 5 5 4 2 5 10 2 15 14 39 38 35 34 38 35 34 31 29 28 26 24 23 22 21 19 18 17 15 14 13 12 12 11 12 12 11 12 12 14 16 17 16 16 14
5 6 7 3 14 15 9 5 10 8 1 13 25 37 41 38 36 36 36 34 31 28 28 28 27 25 23 23 21 20 19 18 17 14 14 13 12 12 14 12 12 11 12 14 16 16 17 15 13
3 13 7 12 9 9 4 4 2 6 5 20 27 38 42 39 37 37 37 34 31 29 27 27 26 25 24 22 21 19 19 17 17 16 13 13 12 11 11 10 13 12 11 11 12 13 14 13 12
6 10 5 16 21 22 9 4 4 4 18 24 30 36 40 41 37 37 34 32 31 29 26 26 26 25 24 23 21 20 19 18 17 18 16 14 12 10 11 10 16 14 15 10 11 12 12 14 12
11 14 14 20 12 13 7 2 3 14 20 27 29 35 39 42 40 37 37 35 34 29 25 26 26 26 26 25 22 19 19 19 19 19 17 15 13 10 10 11 16 15 13 11 9 10 9 13 11
10 7 3 7 19 8 10 3 9 11 23 29 30 31 37 38 38 40 37 36 32 29 26 25 24 25 27 24 22 20 19 21 23 19 18 17 16 14 11 12 13 12 12 12 12 12 14 12 13
4 3 5 2 12 7 13 8 12 14 21 26 33 32 30 36 38 39 37 35 34 32 30 27 25 25 25 27 22 23 21 22 22 20 18 17 16 16 14 13 15 13 12 8 11 16 15 17 15
7 3 7 3 19 9 11 6 7 20 22 21 26 32 32 28 36 40 40 36 34 32 31 23 29 28 27 29 24 24 22 20 19 19 19 19 17 16 17 15 15 16 15 14 12 13 14 15 12
4 6 7 7 3 6 11 15 5 19 21 19 27 33 35 38 37 36 39 39 35 33 31 30 24 31 27 29 26 24 23 21 20 21 22 21 20 18 17 15 16 15 15 16 16 16 15 11 10
3 3 5 15 16 7 14 7 11 16 14 18 26 31 33 41 40 37 34 36 36 34 31 32 32 33 30 29 30 27 27 26 23 17 22 22 21 17 19 17 15 17 18 17 17 18 16 13 11
3 4 14 14 10 5 10 10 6 10 19 30 35 30 36 37 37 39 36 37 42 41 35 33 34 31 32 33 29 32 29 27 25 21 17 22 25 20 21 19 17 14 15 17 19 18 15 14 13
5 5 6 7 14 6 1 5 3 6 15 17 28 26 28 33 37 36 34 36 37 39 39 34 31 33 33 35 33 31 32 31 29 29 25 22 21 21 22 21 19 17 16 16 17 18 16 15 13
7 5 9 8 2 4 3 5 4 5 11 12 20 25 24 26 27 34 34 35 38 34 33 34 32 35 36 32 37 37 34 34 32 33 31 23 21 22 21 22 21 18 17 15 17 18 16 16 14
11 6 5 4 4 1 2 3 6 1 7 13 20 25 41 34 26 35 36 36 38 34 32 33 34 35 36 35 35 33 33 33 32 27 27 26 26 25 22 22 22 20 18 17 18 20 19 17 16
5 6 4 4 2 3 4 4 6 5 7 5 14 28 33 27 27 31 33 34 39 37 33 33 32 31 34 35 34 35 31 27 29 29 26 28 26 27 26 24 25 22 22 20 19 21 21 19 17
3 6 4 5 4 5 3 2 9 9 6 7 15 31 23 25 33 28 30 37 39 40 36 35 34 34 34 34 35 34 33 29 25 27 28 27 28 28 27 26 27 26 26 23 20 23 23 22 19
6 8 5 5 3 5 5 3 6 6 3 16 20 21 20 26 30 32 31 35 39 40 38 37 37 38 37 36 33 33 32 30 23 27 29 28 28 28 27 27 28 29 26 24 22 22 25 24 22
2 4 6 6 2 4 4 7 10 6 6 3 11 12 20 21 28 35 35 35 37 37 37 38 37 39 40 38 38 34 32 32 28 23 28 30 28 26 27 25 26 30 26 23 26 24 24 25 26
5 6 3 3 3 4 5 4 5 7 9 8 7 15 17 25 29 33 35 36 36 36 34 35 35 35 35 39 41 38 33 31 31 25 22 23 26 26 26 27 29 25 25 22 20 19 20 25 26
2 2 4 5 4 6 4 6 8 9 10 11 9 22 22 26 29 34 35 37 39 38 36 31 32 34 35 35 35 36 32 31 29 26 24 22 21 24 26 21 18 17 16 16 15 15 18 21 22
3 2 4 4 5 2 4 7 6 11 7 10 10 9 15 19 28 31 37 39 39 41 37 30 29 32 29 31 30 27 25 23 23 21 20 20 20 19 19 16 14 13 14 14 14 14 14 14 15
Wind_Direction
117 116 110 75 81 60 315 87 53 133 360 195 167 177 167 86 168 202 152 162 166 161 161 162 159 151 149 146 146 148 145 144 142 141 145 144 146 144 137 134 130 130 127 129 130 125 122 118 123
132 135 111 81 66 52 321 263 146 140 144 140 171 138 44 95 118 137 151 163 168 163 162 161 163 161 155 149 150 153 151 148 141 134 135 143 145 142 138 133 132 132 129 129 127 124 127 128 127
116 110 102 101 57 39 333 253 122 126 130 135 129 116 112 132 140 145 157 162 168 167 164 163 163 164 166 160 156 156 153 148 138 117 117 134 143 140 138 138 137 137 133 131 132 131 131 130 125
341 338 67 73 48 298 292 220 148 149 165 217 151 84 79 13 144 148 157 163 167 168 168 167 165 163 166 165 163 160 156 149 138 122 119 132 142 143 141 135 134 139 139 143 140 138 136 131 135
357 13 53 30 12 350 283 226 151 154 150 156 154 102 101 144 149 156 159 166 169 167 167 169 167 165 165 164 164 163 159 153 142 131 127 129 138 141 138 135 136 141 143 141 138 139 141 143 144
6 349 57 40 35 352 68 145 163 186 127 125 123 116 140 184 166 163 163 167 169 166 167 170 170 169 168 167 168 167 164 159 152 144 136 136 138 142 141 141 139 142 142 145 143 144 143 141 142
326 59 145 176 165 348 355 129 163 153 167 136 139 71 143 171 167 163 166 167 169 170 168 170 172 175 175 174 171 174 171 165 162 155 145 145 144 149 148 148 146 149 148 150 151 154 151 147 148
215 100 134 112 263 43 262 259 141 167 220 144 183 165 169 171 169 167 168 167 171 173 176 176 177 179 178 177 178 179 177 169 167 163 156 152 149 152 152 151 152 155 155 156 158 165 169 164 161
187 6 316 197 204 211 222 244 89 71 149 182 191 203 175 165 166 168 169 172 174 178 180 181 183 183 179 180 183 180 181 173 174 164 163 159 158 154 156 153 154 154 160 159 163 170 174 181 179
170 144 230 225 162 163 157 169 222 168 148 83 111 143 160 165 169 168 172 176 180 184 185 187 187 187 185 184 182 187 182 175 182 168 167 158 156 161 155 155 154 160 159 157 163 171 176 187 194
196 207 228 172 226 167 178 209 183 150 100 177 143 147 160 173 174 171 175 178 179 184 189 192 190 190 191 190 189 186 186 183 181 176 166 165 157 159 165 166 163 164 161 161 164 167 175 192 202
248 257 211 117 137 153 210 115 251 184 315 164 164 162 169 181 184 183 181 182 184 189 198 197 195 196 194 194 192 188 188 185 185 179 177 172 172 178 171 175 178 171 167 167 168 174 181 189 198
196 273 259 154 166 185 200 27 328 104 150 152 159 166 174 186 194 196 193 189 188 191 198 199 196 199 198 196 193 191 190 187 186 184 174 165 158 163 175 176 173 169 175 168 176 184 191 195 199
288 271 267 186 191 170 138 305 275 168 161 162 157 168 179 190 196 199 199 198 195 192 191 189 196 201 201 195 193 188 190 186 179 180 183 174 168 165 169 165 169 167 171 180 188 194 197 205 214
272 291 24 132 148 176 150 331 242 184 169 175 182 176 189 195 197 201 203 205 201 197 191 189 194 199 204 197 193 190 188 189 186 184 186 184 184 181 183 176 186 191 197 210 214 214 220 223 235
352 32 29 287 180 190 164 240 247 216 183 184 195 197 190 198 203 205 210 210 207 204 197 196 199 196 199 192 188 182 182 186 193 195 196 197 198 196 195 201 201 211 225 225 232 226 234 234 244
8 19 343 42 209 140 215 258 242 209 192 190 194 201 204 202 205 210 211 213 217 213 206 197 217 202 193 190 187 189 192 197 204 212 212 210 207 208 207 216 219 221 229 232 236 228 232 238 251
315 336 317 284 122 283 227 249 215 201 192 205 205 205 207 209 209 213 215 214 217 220 216 212 216 214 197 199 197 199 200 206 217 227 228 224 216 212 216 223 226 230 232 240 245 247 246 252 247
242 240 268 284 291 261 250 229 213 195 203 218 224 215 213 216 215 216 218 221 215 218 218 219 220 217 211 200 206 207 214 217 216 234 221 223 220 220 220 222 228 235 239 250 252 251 241 248 235
275 310 289 286 279 219 267 257 186 180 220 207 219 220 223 219 217 218 222 219 221 223 223 225 223 225 217 213 213 214 216 219 221 226 224 221 222 221 227 221 229 238 246 241 245 246 246 248 230
279 227 272 251 309 276 344 302 211 238 246 221 235 234 228 221 219 215 216 220 218 220 224 223 224 226 219 217 218 220 220 223 224 228 230 224 214 225 229 231 234 238 248 252 248 243 241 237 239
278 224 248 274 330 270 72 264 296 251 243 242 241 238 238 234 221 221 216 216 219 224 223 226 227 223 217 221 222 226 226 226 231 235 233 226 225 230 234 234 237 244 251 254 243 242 239 238 238
244 293 284 254 221 216 333 81 260 315 261 243 246 239 237 236 235 222 220 219 221 224 226 228 228 227 224 224 223 220 225 226 227 233 234 232 233 237 239 240 240 246 249 254 243 241 238 242 242
262 308 38 52 116 44 286 133 285 213 210 230 234 240 236 224 225 224 223 221 221 224 226 227 229 230 226 226 227 229 235 235 226 227 228 232 236 239 242 238 241 251 253 253 247 241 240 242 248
102 54 330 345 2 213 242 89 241 269 221 229 208 231 222 213 217 219 217 217 220 223 223 227 232 232 230 232 233 235 241 243 237 235 232 232 236 240 239 241 247 250 254 255 249 241 241 241 246
186 155 160 237 223 257 266 228 267 291 199 241 265 236 216 207 216 223 212 219 222 222 228 229 231 231 232 234 234 237 242 245 248 243 244 244 245 250 251 253 254 255 255 256 250 245 240 242 242
175 214 189 112 24 30 264 296 312 329 297 284 229 196 188 190 208 216 217 221 225 227 227 231 233 235 236 238 237 236 240 243 247 244 245 247 250 252 255 254 261 258 263 255 258 254 240 241 248
163 167 58 8 184 265 291 281 238 285 265 270 236 225 213 206 207 215 222 227 230 229 228 229 234 238 240 239 239 239 243 245 249 252 252 250 251 250 253 252 256 262 262 262 264 264 244 244 253
31 282 51 127 139 176 230 265 222 235 230 252 249 231 215 203 205 215 223 229 235 237 231 230 235 239 242 246 246 244 246 248 248 251 253 255 251 251 255 264 260 256 252 260 265 253 248 249 254
196 277 139 126 251 218 154 272 243 243 247 234 217 210 221 219 213 207 222 230 232 238 233 236 241 242 246 251 252 250 248 247 244 241 241 238 241 248 250 256 257 255 259 256 251 255 251 251 255
Height
1496 1498 1498 1499 1509 1506 1513 1506 1499 1495 1496 1495 1500 1500 1500 1499 1502 1515 1505 1511 1519 1523 1527 1532 1535 1538 1540 1541 1543 1545 1546 1547 1548 1549 1551 1552 1552 1552 1553 1553 1554 1554 1553 1554 1557 1559 1560 1562 1562
1498 1498 1499 1500 1511 1519 1515 1503 1499 1492 1494 1496 1498 1498 1499 1502 1501 1502 1507 1514 1519 1523 1527 1531 1536 1539 1541 1543 1545 1547 1548 1549 1550 1550 1551 1552 1552 1553 1554 1554 1555 1555 1556 1557 1559 1561 1562 1564 1565
1499 1500 1501 1503 1516 1522 1517 1495 1495 1494 1494 1497 1497 1499 1498 1500 1500 1504 1510 1514 1520 1524 1528 1532 1536 1539 1542 1544 1546 1548 1549 1550 1551 1551 1552 1552 1553 1554 1555 1556 1556 1557 1558 1559 1561 1563 1564 1566 1567
1502 1504 1504 1513 1515 1503 1501 1492 1491 1492 1493 1495 1496 1499 1501 1500 1500 1505 1510 1516 1521 1525 1529 1533 1536 1540 1543 1545 1547 1548 1550 1551 1552 1553 1553 1554 1554 1555 1556 1557 1558 1559 1560 1561 1563 1565 1566 1568 1569
1503 1502 1509 1513 1512 1505 1499 1494 1496 1494 1494 1496 1495 1499 1503 1505 1506 1508 1511 1517 1521 1526 1530 1534 1537 1540 1543 1545 1547 1549 1551 1552 1553 1554 1555 1556 1556 1557 1557 1558 1559 1561 1562 1563 1565 1566 1568 1569 1570
1505 1504 1517 1527 1512 1502 1495 1494 1495 1494 1495 1496 1497 1498 1505 1506 1506 1509 1512 1517 1523 1526 1530 1535 1538 1541 1544 1546 1548 1550 1552 1554 1555 1556 1556 1557 1558 1559 1559 1560 1561 1563 1564 1565 1567 1568 1570 1571 1572
1508 1510 1520 1520 1512 1507 1496 1491 1495 1496 1494 1495 1496 1501 1505 1507 1510 1510 1514 1519 1524 1528 1531 1535 1538 1541 1544 1547 1549 1551 1553 1555 1556 1557 1558 1559 1560 1560 1561 1562 1563 1564 1566 1567 1569 1570 1572 1573 1574
1509 1510 1515 1518 1515 1510 1496 1495 1492 1495 1493 1493 1496 1501 1505 1506 1511 1514 1517 1521 1526 1529 1533 1535 1538 1541 1544 1547 1550 1552 1554 1556 1557 1559 1559 1560 1561 1562 1562 1563 1565 1566 1567 1569 1570 1572 1574 1575 1576
1507 1514 1514 1513 1507 1500 1494 1494 1497 1495 1493 1491 1495 1496 1500 1505 1511 1515 1519 1522 1525 1530 1533 1536 1538 1541 1544 1547 1550 1552 1554 1557 1558 1559 1560 1561 1562 1563 1563 1564 1566 1567 1568 1570 1571 1573 1574 1576 1577
1504 1513 1504 1492 1490 1494 1495 1490 1492 1493 1493 1494 1494 1495 1501 1506 1511 1514 1517 1520 1525 1529 1532 1535 1538 1542 1544 1547 1550 1552 1555 1557 1559 1560 1561 1561 1563 1563 1564 1565 1566 1568 1569 1570 1572 1573 1575 1576 1577
1499 1501 1488 1490 1488 1489 1489 1487 1487 1491 1495 1491 1491 1496 1502 1507 1512 1515 1517 1519 1521 1527 1531 1534 1538 1541 1544 1546 1549 1552 1554 1557 1559 1561 1561 1562 1563 1564 1565 1566 1567 1568 1569 1571 1572 1573 1575 1576 1577
1498 1485 1491 1490 1491 1491 1488 1488 1490 1490 1492 1491 1491 1495 1501 1509 1513 1515 1516 1520 1524 1527 1530 1533 1537 1540 1543 1546 1549 1551 1554 1556 1559 1561 1562 1563 1564 1565 1565 1566 1568 1569 1570 1571 1572 1574 1575 1576 1578
1493 1485 1490 1489 1483 1488 1488 1490 1492 1490 1492 1492 1492 1497 1501 1507 1512 1517 1519 1521 1523 1526 1529 1532 1536 1539 1542 1546 1549 1551 1553 1556 1559 1561 1562 1563 1564 1565 1566 1566 1568 1569 1570 1572 1573 1574 1576 1577 1578
1487 1482 1479 1485 1486 1488 1491 1492 1493 1491 1489 1495 1494 1496 1498 1502 1508 1515 1518 1520 1521 1525 1528 1532 1535 1538 1541 1544 1548 1550 1553 1556 1558 1560 1562 1563 1564 1566 1566 1567 1568 1569 1571 1573 1574 1575 1576 1576 1576
1486 1485 1478 1479 1485 1489 1490 1498 1490 1486 1489 1491 1494 1496 1499 1501 1505 1508 1512 1515 1519 1523 1527 1530 1534 1537 1539 1543 1547 1550 1552 1555 1557 1559 1561 1563 1564 1566 1567 1568 1569 1570 1571 1572 1573 1573 1574 1575 1575
1488 1487 1499 1487 1486 1483 1488 1500 1481 1482 1487 1487 1491 1495 1497 1500 1501 1506 1509 1513 1518 1522 1525 1529 1533 1535 1538 1542 1545 1548 1551 1553 1556 1558 1560 1562 1564 1565 1567 1568 1568 1569 1570 1571 1571 1572 1573 1572 1573
1500 1509 1502 1497 1488 1484 1491 1488 1474 1480 1483 1485 1489 1491 1495 1497 1499 1501 1505 1510 1513 1518 1521 1526 1531 1533 1537 1541 1544 1547 1550 1552 1555 1557 1559 1561 1563 1564 1565 1567 1568 1568 1569 1570 1570 1571 1571 1571 1571
1513 1512 1502 1502 1487 1486 1487 1482 1475 1477 1481 1484 1485 1486 1489 1491 1491 1496 1501 1506 1511 1514 1518 1523 1524 1529 1534 1539 1543 1546 1549 1551 1553 1555 1557 1559 1561 1563 1564 1565 1566 1567 1568 1568 1568 1569 1569 1570 1570
1499 1504 1506 1489 1479 1487 1476 1479 1476 1474 1480 1482 1480 1482 1484 1487 1492 1496 1500 1503 1507 1511 1515 1517 1521 1526 1531 1535 1539 1542 1544 1547 1550 1551 1553 1556 1559 1561 1562 1563 1565 1565 1566 1567 1567 1567 1567 1567 1569
1500 1504 1500 1488 1478 1482 1474 1475 1472 1474 1468 1470 1469 1474 1476 1483 1488 1493 1498 1500 1502 1505 1509 1514 1518 1523 1527 1531 1535 1538 1541 1543 1546 1549 1550 1552 1555 1557 1559 1560 1562 1563 1564 1565 1564 1565 1565 1565 1567
1498 1504 1500 1499 1481 1474 1473 1481 1475 1470 1469 1468 1468 1472 1473 1475 1481 1486 1491 1495 1499 1502 1505 1509 1513 1519 1523 1528 1532 1535 1539 1542 1543 1545 1547 1549 1551 1554 1556 1557 1560 1561 1562 1562 1562 1563 1563 1564 1566
1508 1485 1489 1490 1494 1508 1475 1515 1481 1472 1467 1466 1463 1468 1471 1473 1476 1482 1486 1490 1494 1497 1502 1505 1510 1514 1519 1524 1527 1530 1533 1536 1538 1541 1544 1546 1549 1550 1552 1555 1556 1558 1559 1559 1560 1561 1562 1562 1563
1494 1481 1487 1484 1491 1496 1489 1504 1485 1474 1475 1466 1458 1460 1459 1466 1473 1475 1479 1484 1489 1494 1497 1501 1506 1510 1514 1519 1522 1525 1528 1531 1535 1537 1540 1542 1545 1546 1548 1550 1553 1554 1555 1556 1557 1558 1559 1559 1560
1479 1483 1487 1495 1503 1523 1497 1500 1494 1479 1465 1457 1451 1452 1453 1460 1468 1470 1475 1481 1485 1491 1495 1498 1502 1506 1510 1513 1517 1519 1521 1525 1528 1532 1535 1538 1540 1542 1544 1546 1548 1550 1550 1551 1553 1554 1555 1556 1557
1482 1502 1528 1522 1527 1527 1495 1499 1486 1457 1454 1447 1443 1441 1449 1456 1464 1467 1470 1475 1480 1484 1489 1494 1498 1501 1506 1508 1511 1514 1517 1521 1523 1527 1530 1532 1534 1536 1538 1541 1543 1544 1545 1546 1548 1549 1551 1552 1553
1486 1497 1527 1526 1533 1521 1501 1497 1477 1449 1447 1449 1447 1445 1448 1453 1460 1465 1466 1470 1475 1480 1485 1489 1493 1496 1500 1503 1506 1510 1514 1516 1518 1522 1525 1527 1529 1532 1534 1536 1537 1538 1540 1541 1542 1543 1545 1547 1549
1481 1495 1484 1513 1521 1524 1510 1486 1462 1450 1444 1447 1448 1448 1448 1450 1455 1460 1463 1466 1471 1476 1480 1484 1487 1491 1495 1497 1502 1506 1508 1511 1514 1517 1521 1523 1525 1527 1528 1531 1531 1531 1534 1536 1536 1536 1538 1541 1544
1469 1473 1497 1512 1517 1521 1514 1497 1491 1462 1453 1448 1451 1447 1445 1449 1452 1457 1462 1465 1468 1471 1475 1480 1483 1487 1490 1494 1497 1501 1504 1508 1511 1514 1516 1518 1521 1522 1523 1525 1525 1528 1528 1530 1531 1531 1533 1536 1538
1476 1484 1489 1497 1509 1522 1525 1511 1463 1455 1449 1445 1440 1440 1441 1443 1445 1451 1456 1461 1466 1470 1472 1475 1479 1483 1486 1490 1493 1495 1499 1502 1507 1509 1512 1515 1516 1518 1517 1520 1520 1523 1525 1526 1527 1528 1529 1531 1533
1461 1468 1483 1502 1502 1512 1515 1500 1446 1443 1441 1440 1438 1439 1439 1438 1440 1444 1451 1456 1461 1466 1468 1471 1475 1479 1483 1486 1489 1493 1496 1500 1502 1505 1508 1511 1511 1513 1514 1515 1517 1517 1519 1521 1522 1524 1525 1527 1528